sat.trackr.live / text

‹ back to catalog

STARLINK-35513

NORAD 65930 · 2025-225W

PAYLOAD ACTIVE UNKNOWN

§ Identity

Operator
Country
US
Launch date
2025-10-08
Launch site
AFWTR
Launch vehicle
Mass (kg)
RCS (m²)

Purposes: comms

External: N2YO · Heavens-Above · Gunter

§ Orbital elements

Epoch: 2026-09-20T20:14:56.735808Z

Period
93.85 min
Inclination
53.1606°
Eccentricity
0.0002491
Mean motion
15.34396112 rev/d
Perigee alt
461.0 km
Apogee alt
464.4 km
Semi-major
6,840.9 km
B*
4.4592e-4
RAAN
335.9094°
Arg perigee
37.1824°
Mean anomaly
322.9351°
Rev number
5,433

§ Raw data

STARLINK-355131 65930U 25225W   26263.84371222  .00014718  00000+0  44592-3 0  99942 65930  53.1606 335.9094 0002491  37.1824 322.9351 15.34396112 54335

JSON: /api/v1/satellites/65930 · /tle

For live sub-satellite position, see the globe view (requires WebGL).

§ Visibility from observer

Set your observer location to see the next 7 days of passes ≥ 10°. The values pass through the URL so the page stays shareable.

No JS? Fill the form by hand. The geolocation button needs JavaScript.